Meteopurmerend
purmerend
Purmerend - Baaienwijk



My webcam  My webcam


Onweer radar Meer informatie blitzortung!


Regen radar Meer informatie rain snow radar


Bezoek onze andere website:

CandyAppleRed WebdesignWebdesign Purmerend Candy Apple Red

MeteopurmerendBlog

Template documentation
and downloads



Het weer levert geen direct gevaar op.    Er zijn geen waarschuwingen afgegeven.

15 daagse weersverwachting Ålesund (NO)

  • Overzicht
  • Per uur
  • 15 dagen
  • Extra
  • Vergelijk
  • Kaarten
  • Dagkaart
  • Meer »
  • Info
  • Statistieken
  • Directe link
    Temp 6h Neerslag Wind  
 04:11     22:57    Daglengte: 18:46 Vandaag
08:00
10°
 
2
14:00
10°
1.5 mm
8
20:00
10°
 
5
 04:08     22:59    Daglengte: 18:51 Morgen
02:00
 
1
08:00
2.0 mm
2
14:00
 
4
20:00
5.4 mm
5
 04:06     23:02    Daglengte: 18:56 Zaterdag 28 Mei
02:00
22.2 mm
6
08:00
30.3 mm
6
14:00
35.2 mm
6
20:00
30.2 mm
6
 04:04     23:04    Daglengte: 19:00 Zondag 29 Mei
02:00
40.0 mm
6
Locatie info
Region: Møre og Romsdal
Latitude: 62.4715°N
Longitude: 6.1729°E
3 masl
Postcode: 6003
Temp/Neerslag /Baro Onweer/Dauwpunt
    Temp Baro 1h Neerslag Dauwpunt Wind UV Bewolking  
 04:11     22:57    Daglengte: 18:46 Vandaag
08:00
10°
997.5 hPa
62%
7.0°
2
Windvlaag: 2 m/s
79%
09:00
10°
998.0 hPa
65%
6.9°
2
Windvlaag: 1.9 m/s
86%
10:00
11°
998.7 hPa
65%
7.9°
4
Windvlaag: 7.9 m/s
42%
11:00
10°
999.5 hPa
76%
8.1°
8
Windvlaag: 10.3 m/s
68%
12:00
10°
1000.5 hPa
76%
7.9°
8
Windvlaag: 10.3 m/s
19%
13:00
10°
Voelt als: 6.4°
1001.3 hPa 0.6 mm
82%
7.1°
9
Windvlaag: 11 m/s
20%
14:00
10°
1002.0 hPa 0.9 mm
76%
5.2°
8
Windvlaag: 9.4 m/s
17%
15:00
11°
1002.5 hPa
42%
5.3°
8
Windvlaag: 7.3 m/s
18%
16:00
11°
1002.9 hPa
33%
5.4°
7
Windvlaag: 6.2 m/s
14%
17:00
11°
1003.0 hPa
63%
5.7°
7
Windvlaag: 5.6 m/s
15%
18:00
10°
1003.0 hPa
33%
5.3°
6
Windvlaag: 5.6 m/s
19%
19:00
10°
1002.7 hPa
66%
5.9°
6
Windvlaag: 6.4 m/s
17%
20:00
10°
1002.6 hPa
29%
6.9°
5
Windvlaag: 6.4 m/s
10%
21:00
10°
Voelt als: 7.8°
1002.7 hPa
27%
7.3°
4
Windvlaag: 5.1 m/s
6%
22:00
Voelt als: 7.9°
1002.9 hPa
24%
7.1°
3
Windvlaag: 3.8 m/s
4%
23:00
Voelt als: 8.1°
1003.0 hPa
22%
7.2°
2
Windvlaag: 3.2 m/s
4%
 04:08     22:59    Daglengte: 18:51 Morgen
00:00
Voelt als: 8.3°
1002.9 hPa
17%
7.2°
1
Windvlaag: 3.1 m/s
6%
01:00
Voelt als: 8.5°
1002.8 hPa
33%
7.1°
1
Windvlaag: 2.7 m/s
20%
02:00
Voelt als: 8.3°
1002.7 hPa
71%
7.0°
1
Windvlaag: 1.8 m/s
25%
03:00
Voelt als: 7.9°
1002.5 hPa
76%
7.1°
1
Windvlaag: -1.1 m/s
17%
04:00
Voelt als: 7.5°
1002.6 hPa
72%
7.0°
1
Windvlaag: -1.4 m/s
18%
05:00
Voelt als: 7.2°
1002.8 hPa
70%
6.7°
2
Windvlaag: -2.4 m/s
20%
06:00
Voelt als: 7.3°
1003.0 hPa
74%
6.7°
2
Windvlaag: -3.3 m/s
65%
07:00
Voelt als: 7.3°
1003.2 hPa 2.0 mm
82%
6.8°
2
Windvlaag: -3.3 m/s
57%
08:00
Voelt als: 7.2°
1003.6 hPa
82%
6.8°
2
Windvlaag: -3.2 m/s
82%
09:00
Voelt als: 7.3°
1004.1 hPa
82%
6.6°
2
Windvlaag: -3.1 m/s
79%
10:00
Voelt als: 7.2°
1004.6 hPa
82%
6.3°
3
Windvlaag: -3.5 m/s
81%
11:00
Voelt als: 6.9°
1005.1 hPa
82%
6.1°
3
Windvlaag: -3.3 m/s
70%
12:00
Voelt als: 6.8°
1005.7 hPa
82%
5.7°
4
Windvlaag: -2.6 m/s
67%
13:00
Voelt als: 6.6°
1006.2 hPa
82%
5.3°
4
Windvlaag: -1.9 m/s
59%
14:00
Voelt als: 6.4°
1006.8 hPa
82%
5.5°
4
Windvlaag: -1.2 m/s
56%
15:00
Voelt als: 6.9°
1007.4 hPa
82%
6.1°
4
Windvlaag: -1.3 m/s
28%
16:00
Voelt als: 6.4°
1007.9 hPa
77%
6.1°
5
Windvlaag: -0.8 m/s
56%
17:00
Voelt als: 6.5°
1008.3 hPa
24%
6.5°
5
Windvlaag: -0.1 m/s
48%
18:00
Voelt als: 6.1°
1008.7 hPa
71%
6.6°
5
Windvlaag: 0.4 m/s
56%
19:00
Voelt als: 5.8°
1009.0 hPa 2.7 mm
77%
6.6°
5
Windvlaag: -0.7 m/s
34%
20:00
Voelt als: 5.4°
1009.2 hPa 2.7 mm
79%
6.9°
5
Windvlaag: 2 m/s
72%
21:00
Voelt als: 5.5°
1009.5 hPa 2.7 mm
82%
7.0°
6
Windvlaag: 2.9 m/s
65%
22:00
Voelt als: 5.5°
1009.7 hPa
82%
6.6°
5
Windvlaag: -0.6 m/s
86%
23:00
Voelt als: 4.9°
1010.0 hPa 3.9 mm
82%
6.7°
6
Windvlaag: -2.1 m/s
86%
 04:06     23:02    Daglengte: 18:56 Zaterdag 28 Mei
00:00
Voelt als: 5.2°
1010.0 hPa 4.3 mm
82%
7.2°
7
Windvlaag: -4.4 m/s
86%
01:00
Voelt als: 5.0°
1010.2 hPa 5.5 mm
82%
7.3°
7
Windvlaag: -5.8 m/s
86%
02:00
Voelt als: 5.1°
1010.5 hPa 5.7 mm
82%
7.5°
6
Windvlaag: -6.2 m/s
86%
03:00
Voelt als: 5.1°
1010.7 hPa 5.3 mm
82%
7.4°
6
Windvlaag: -6 m/s
86%
04:00
Voelt als: 4.8°
1011.2 hPa 5.9 mm
82%
7.1°
7
Windvlaag: -6.1 m/s
86%
05:00
Voelt als: 4.4°
1012.2 hPa 4.8 mm
100%
7.3°
8
Windvlaag: -6.3 m/s
100%
06:00
Voelt als: 4.6°
1012.7 hPa 4.3 mm
100%
7.6°
7
Windvlaag: -6.3 m/s
100%
07:00
Voelt als: 4.4°
1013.0 hPa 4.9 mm
100%
7.3°
7
Windvlaag: -5.3 m/s
100%
08:00
Voelt als: 4.6°
1013.7 hPa 5.1 mm
100%
7.4°
6
Windvlaag: -4.8 m/s
100%
09:00
Voelt als: 4.4°
1014.3 hPa 5.4 mm
100%
7.4°
6
Windvlaag: -2.4 m/s
100%
10:00
Voelt als: 3.9°
1015.0 hPa 5.4 mm
100%
7.4°
8
Windvlaag: -6.4 m/s
100%
11:00
Voelt als: 3.9°
1015.4 hPa 8.8 mm
100%
6.5°
8
Windvlaag: -6.4 m/s
100%
12:00
Voelt als: 4.0°
1015.7 hPa 5.3 mm
100%
6.0°
7
Windvlaag: -5.8 m/s
100%
13:00
Voelt als: 4.1°
1016.0 hPa 5.4 mm
100%
5.9°
6
Windvlaag: -5.1 m/s
100%
14:00
Voelt als: 4.1°
1016.1 hPa 4.9 mm
100%
5.8°
6
Windvlaag: -3.6 m/s
100%
15:00
Voelt als: 4.1°
1016.3 hPa 7.6 mm
100%
5.7°
7
Windvlaag: -3.4 m/s
98%
16:00
Voelt als: 4.6°
1016.2 hPa
100%
6.0°
6
Windvlaag: -2.2 m/s
100%
17:00
Voelt als: 4.3°
1016.3 hPa 4.8 mm
100%
6.1°
6
Windvlaag: -1.6 m/s
100%
18:00
Voelt als: 4.5°
1016.4 hPa 4.9 mm
100%
6.1°
6
Windvlaag: -1.2 m/s
100%
19:00
Voelt als: 4.6°
1016.2 hPa 4.9 mm
100%
5.9°
6
Windvlaag: -3.3 m/s
91%
20:00
Voelt als: 4.4°
1016.0 hPa 8.1 mm
100%
5.9°
6
Windvlaag: -3.4 m/s
98%
21:00
Voelt als: 4.5°
1015.9 hPa 4.9 mm
100%
5.5°
6
Windvlaag: -3 m/s
98%
22:00
Voelt als: 4.6°
1015.8 hPa 5.1 mm
100%
6.2°
5
Windvlaag: -3.2 m/s
100%
23:00
Voelt als: 4.0°
1015.7 hPa 5.0 mm
100%
5.4°
7
Windvlaag: -5.6 m/s
100%
 04:04     23:04    Daglengte: 19:00 Zondag 29 Mei
00:00
Voelt als: 4.0°
1014.7 hPa 8.0 mm
100%
5.0°
6
Windvlaag: 8.3 m/s
98%
01:00
Voelt als: 4.0°
1014.4 hPa 8.5 mm
100%
5.0°
6
Windvlaag: 7.9 m/s
100%
02:00
Voelt als: 3.8°
1013.8 hPa 8.5 mm
100%
5.5°
6
Windvlaag: 8.7 m/s
97%
03:00
Voelt als: 3.9°
1013.6 hPa 8.9 mm
100%
5.9°
6
Windvlaag: 8.7 m/s
100%
04:00
Voelt als: 4.0°
1013.3 hPa 9.1 mm
100%
5.8°
6
Windvlaag: 8.4 m/s
100%
05:00
Voelt als: 4.2°
1013.0 hPa 9.4 mm
100%
6.0°
5
Windvlaag: 8.8 m/s
100%
06:00
Voelt als: 4.5°
1012.6 hPa 9.6 mm
100%
6.4°
5
Windvlaag: 9 m/s
90%
07:00
Voelt als: 4.3°
1012.4 hPa 9.7 mm
100%
5.7°
5
Windvlaag: 7.2 m/s
100%
Temp/Neerslag /Baro Onweer/Dauwpunt
    Temp Baro Neerslag Dauwpunt Wind Bewolking  
 04:11     22:57    Daglengte: 18:46 Vandaag
08:00
10°
997.5 hPa   7.0°
2
79%
11:00
10°
999.5 hPa   8.1°
8
68%
14:00
10°
1002.0 hPa 1.5 mm 5.2°
8
17%
17:00
11°
1003.0 hPa   5.7°
7
15%
20:00
10°
1002.6 hPa   6.9°
5
10%
23:00
Voelt als: 8.1°
1003.0 hPa   7.2°
2
4%
 04:08     22:59    Daglengte: 18:51 Morgen
02:00
Voelt als: 8.3°
1002.7 hPa   7.0°
1
25%
05:00
Voelt als: 7.2°
1002.8 hPa   6.7°
2
20%
08:00
Voelt als: 7.2°
1003.6 hPa 2.0 mm 6.8°
2
82%
11:00
Voelt als: 6.9°
1005.1 hPa   6.1°
3
70%
14:00
Voelt als: 6.4°
1006.8 hPa   5.5°
4
56%
17:00
Voelt als: 6.5°
1008.3 hPa   6.5°
5
48%
20:00
Voelt als: 5.4°
1009.2 hPa 5.4 mm 6.9°
5
72%
23:00
Voelt als: 4.9°
1010.0 hPa 6.6 mm 6.7°
6
86%
 04:06     23:02    Daglengte: 18:56 Zaterdag 28 Mei
02:00
Voelt als: 5.1°
1010.5 hPa 15.6 mm 7.5°
6
86%
05:00
Voelt als: 4.4°
1012.2 hPa 16.1 mm 7.3°
8
100%
08:00
Voelt als: 4.6°
1013.7 hPa 14.2 mm 7.4°
6
100%
11:00
Voelt als: 3.9°
1015.4 hPa 19.6 mm 6.5°
8
100%
14:00
Voelt als: 4.1°
1016.1 hPa 15.6 mm 5.8°
6
100%
17:00
Voelt als: 4.3°
1016.3 hPa 12.4 mm 6.1°
6
100%
20:00
Voelt als: 4.4°
1016.0 hPa 17.8 mm 5.9°
6
98%
23:00
Voelt als: 4.0°
1015.7 hPa 14.9 mm 5.4°
7
100%
 04:04     23:04    Daglengte: 19:00 Zondag 29 Mei
02:00
Voelt als: 3.8°
1013.8 hPa 25.0 mm 5.5°
6
97%
05:00
Voelt als: 4.2°
1013.0 hPa 27.4 mm 6.0°
5
100%
08:00
Voelt als: 4.3°
1012.1 hPa 29.5 mm 6.4°
5
100%
11:00
Voelt als: 5.8°
1011.9 hPa 46.3 mm 5.0°
2
1%
14:00
Voelt als: 4.9°
1011.6 hPa 46.4 mm 5.3°
4
1%
17:00
Voelt als: 5.4°
1011.4 hPa 46.4 mm 5.4°
8
0%
20:00
10°
Voelt als: 6.0°
1010.9 hPa 46.4 mm 6.4°
9
0%
23:00
Voelt als: 5.9°
1011.5 hPa 46.4 mm 6.8°
8
0%
 04:02     23:07    Daglengte: 19:05 Maandag 30 Mei
02:00
Voelt als: 7.0°
1011.6 hPa 46.4 mm 5.7°
4
0%
05:00
Voelt als: 6.7°
1011.7 hPa 46.4 mm 5.3°
4
0%
08:00
10°
Voelt als: 9.2°
1011.9 hPa 46.4 mm 4.9°
2
1%
11:00
10°
Voelt als: 7.9°
1011.6 hPa 46.4 mm 5.2°
4
1%
14:00
10°
Voelt als: 7.8°
1011.4 hPa 46.4 mm 8.1°
4
1%
17:00
10°
Voelt als: 8.0°
1010.9 hPa 46.4 mm 8.5°
4
1%
20:00
10°
Voelt als: 8.3°
1010.1 hPa 46.4 mm 8.3°
3
1%
23:00
Voelt als: 8.8°
1009.5 hPa 46.4 mm 8.0°
2
1%
 04:00     23:09    Daglengte: 19:09 Dinsdag 31 Mei
02:00
Voelt als: 8.0°
1009.3 hPa 46.5 mm 7.7°
2
1%
05:00
Voelt als: 8.3°
1008.9 hPa 47.3 mm 7.6°
1
1%
08:00
Voelt als: 7.2°
1009.4 hPa 48.9 mm 7.8°
3
1%
11:00
Voelt als: 6.9°
1010.3 hPa 49.8 mm 7.7°
3
1%
14:00
Voelt als: 7.6°
1011.1 hPa 50.1 mm 8.1°
3
1%
17:00
10°
Voelt als: 7.8°
1011.7 hPa 50.2 mm 8.4°
3
1%
20:00
10°
Voelt als: 9.5°
1012.3 hPa 50.2 mm 8.3°
0
1%
23:00
10°
Voelt als: 8.6°
1012.8 hPa 50.2 mm 8.2°
2
1%
 03:58     23:11    Daglengte: 19:13 Woensdag 01 Jun
02:00
10°
Voelt als: 9.7°
1012.6 hPa 50.2 mm 8.0°
1
1%
05:00
10°
Voelt als: 9.0°
1013.1 hPa 50.2 mm 7.8°
2
1%
08:00
10°
Voelt als: 9.0°
1014.1 hPa 50.2 mm 8.1°
2
1%
11:00
10°
Voelt als: 9.6°
1015.0 hPa 50.2 mm 8.2°
2
1%
14:00
10°
1016.5 hPa 50.2 mm 8.1°
1
1%
17:00
11°
1017.6 hPa 50.3 mm 7.7°
1
1%
20:00
11°
1018.1 hPa 50.3 mm 7.9°
2
1%
23:00
11°
1018.6 hPa 50.3 mm 7.4°
2
1%
 03:56     23:13    Daglengte: 19:17 Donderdag 02 Jun
02:00
10°
1018.8 hPa 50.3 mm 7.1°
2
1%
05:00
10°
1019.1 hPa   7.1°
3
0%
08:00
11°
1019.6 hPa 100.5 mm 7.6°
4
0%
14:00
11°
1020.4 hPa 100.5 mm 8.8°
7
0%
20:00
11°
1020.5 hPa 100.5 mm 8.6°
6
0%
 03:55     23:15    Daglengte: 19:20 Vrijdag 03 Jun
02:00
10°
1020.4 hPa 100.5 mm 7.9°
5
1%
08:00
11°
1020.4 hPa 100.5 mm 7.9°
8
1%
14:00
10°
1020.8 hPa 100.5 mm 9.4°
9
1%
20:00
10°
1020.8 hPa 100.6 mm 9.4°
6
1%
 03:53     23:17    Daglengte: 19:24 Zaterdag 04 Jun
02:00
11°
1021.4 hPa 100.6 mm 9.3°
3
0%
08:00
12°
1022.7 hPa 100.6 mm 9.9°
3
1%
14:00
11°
1023.4 hPa 100.6 mm 10.2°
5
0%
20:00
11°
1022.9 hPa 100.8 mm 10.1°
4
0%
 03:52     23:19    Daglengte: 19:27 Zondag 05 Jun
02:00
10°
Voelt als: 9.0°
1018.0 hPa 0.3 mm 7.2°
2
75%
08:00
10°
1017.0 hPa 0.4 mm 7.0°
1
72%
14:00
11°
1016.8 hPa 0.2 mm 7.5°
2
66%
20:00
11°
1016.8 hPa 0.3 mm 7.5°
2
58%
 03:50     23:21    Daglengte: 19:31 Maandag 06 Jun
02:00
10°
Voelt als: 9.0°
1017.0 hPa 0.3 mm 6.9°
2
65%
08:00
10°
1016.1 hPa 0.4 mm 7.0°
2
66%
14:00
11°
1015.8 hPa 0.6 mm 7.8°
3
67%
20:00
11°
1015.5 hPa 0.5 mm 7.7°
3
66%
 03:49     23:23    Daglengte: 19:34 Dinsdag 07 Jun
02:00
10°
Voelt als: 8.7°
1015.3 hPa 0.5 mm 7.4°
2
66%
08:00
10°
1014.0 hPa 0.2 mm 7.3°
3
69%
14:00
11°
1012.9 hPa 0.3 mm 8.1°
4
74%
20:00
11°
1012.7 hPa 1.2 mm 7.7°
3
69%
 03:48     23:25    Daglengte: 19:37 Woensdag 08 Jun
02:00
10°
1012.6 hPa 0.8 mm 7.5°
3
73%
08:00
11°
1012.0 hPa 0.6 mm 7.4°
3
79%
14:00
11°
1012.0 hPa 0.7 mm 7.8°
4
64%
20:00
11°
1011.7 hPa 0.8 mm 7.8°
3
57%
 03:46     23:26    Daglengte: 19:40 Donderdag 09 Jun
02:00
10°
1011.5 hPa 0.7 mm 7.4°
1
67%
08:00
11°
1010.8 hPa 0.7 mm 7.4°
1
73%
14:00
12°
1010.5 hPa 0.1 mm 8.1°
2
68%
20:00
11°
1010.5 hPa 1.4 mm 8.3°
2
64%
 03:45     23:28    Daglengte: 19:43 Vrijdag 10 Jun
02:00
10°
1010.7 hPa 1.4 mm 8.3°
1
69%
  CAPE Lifted Index Hail Supercell Tornado SRH 3km CL BTM PRES CL TOP PRES Swiss DWD icon SMHI TS
 04:11     22:57    Daglengte: 18:46 Vandaag
08:00 0 J/kg 2.0 K 0 % 0 % 0 % 0 m²/s² 0 0 2.78 3
09:00 5 J/kg 1.6 K 0 % 0 % 0 % 0 m²/s² 0 0 2.29 61
10:00 15 J/kg 1.2 K 0 % 0 % 0 % 0 m²/s² 0 0 1.8 61
11:00 24 J/kg 1.1 K 0 % 0 % 0 % 0 m²/s² 0 0 1.49 80
12:00 57 J/kg 0.8 K 0 % 0 % 0 % 0 m²/s² 0 0 1.16 2
13:00 48 J/kg 2.1 K 0 % 0 % 0 % 0 m²/s² 0 0 2.46 80
14:00 80 J/kg 2.6 K 0 % 0 % 0 % 0 m²/s² 0 0 2.96 80
15:00 107 J/kg 2.6 K 0 % 0 % 0 % 0 m²/s² 0 0 2.99 2
16:00 82 J/kg 3.2 K 0 % 0 % 0 % 0 m²/s² 0 0 3.92 1
17:00 129 J/kg 2.6 K 0 % 0 % 0 % 0 m²/s² 0 0 5.69 1
18:00 142 J/kg 2.2 K 0 % 0 % 0 % 0 m²/s² 0 0 5.89 1
19:00 152 J/kg 2.3 K 0 % 0 % 0 % 0 m²/s² 0 0 6.92 1
20:00 166 J/kg 2.0 K 0 % 0 % 0 % 0 m²/s² 0 0 7.43 1
21:00 154 J/kg 1.9 K 0 % 0 % 0 % 0 m²/s² 0 0 7.99 0
22:00 151 J/kg 2.0 K 0 % 0 % 0 % 0 m²/s² 0 0 7.88 0
23:00 128 J/kg 2.1 K 0 % 0 % 0 % 0 m²/s² 0 0 8.16 1
 04:08     22:59    Daglengte: 18:51 Morgen
00:00 164 J/kg 1.7 K 0 % 0 % 0 % 0 m²/s² 0 0 7.1 1
01:00 185 J/kg 1.5 K 0 % 0 % 0 % 0 m²/s² 0 0 5.97 1
02:00 188 J/kg 1.5 K 0 % 0 % 0 % 0 m²/s² 0 0 5.52 1
03:00 162 J/kg 1.4 K 0 % 0 % 0 % 0 m²/s² 0 0 4.19 1
04:00 111 J/kg 1.9 K 0 % 0 % 0 % 0 m²/s² 0 0 3.16 1
05:00 22 J/kg 3.4 K 0 % 0 % 0 % 0 m²/s² 0 0 4.33 1
06:00 25 J/kg 3.3 K 0 % 0 % 0 % 0 m²/s² 0 0 4.77 3
07:00 56 J/kg 3.0 K 0 % 0 % 0 % 0 m²/s² 0 0 4.98 3
08:00 96 J/kg 2.7 K 0 % 0 % 0 % 0 m²/s² 0 0 5.52 80
09:00 85 J/kg 3.0 K 0 % 0 % 0 % 0 m²/s² 0 0 7.05 80
10:00 106 J/kg 3.1 K 0 % 0 % 0 % 0 m²/s² 0 0 7.06 80
11:00 94 J/kg 3.1 K 0 % 0 % 0 % 0 m²/s² 0 0 4 80
12:00 84 J/kg 3.2 K 0 % 0 % 0 % 0 m²/s² 0 0 3.62 80
13:00 49 J/kg 3.7 K 0 % 0 % 0 % 0 m²/s² 0 0 4.21 80
14:00 36 J/kg 3.6 K 0 % 0 % 0 % 0 m²/s² 0 0 4.05 80
15:00 69 J/kg 3.1 K 0 % 0 % 0 % 0 m²/s² 0 0 3.76 80
16:00 17 J/kg 4.6 K 0 % 0 % 0 % 0 m²/s² 0 0 5.35 3
17:00 33 J/kg 4.9 K 0 % 0 % 0 % 0 m²/s² 0 0 5.74 3
18:00 26 J/kg 6.0 K 0 % 0 % 0 % 0 m²/s² 0 0 6.66 3
19:00 26 J/kg 6.4 K 0 % 0 % 0 % 0 m²/s² 0 0 7.09 80
20:00 14 J/kg 6.3 K 0 % 0 % 0 % 0 m²/s² 0 0 6.78 80
21:00 14 J/kg 4.9 K 0 % 0 % 0 % 0 m²/s² 0 0 5.23 80
22:00 12 J/kg 4.4 K 0 % 0 % 0 % 0 m²/s² 0 0 4.85 3
23:00 16 J/kg 3.5 K 0 % 0 % 0 % 0 m²/s² 0 0 3.74 61
 04:06     23:02    Daglengte: 18:56 Zaterdag 28 Mei
00:00 13 J/kg 3.5 K 0 % 0 % 0 % 0 m²/s² 0 0 3.71 61
01:00 12 J/kg 3.3 K 0 % 0 % 0 % 0 m²/s² 0 0 3.57 63
02:00 15 J/kg 3.6 K 0 % 0 % 0 % 0 m²/s² 0 0 3.87 63
03:00 18 J/kg 3.7 K 0 % 0 % 0 % 0 m²/s² 0 0 4.03 63
04:00 14 J/kg 4.0 K 0 % 0 % 0 % 0 m²/s² 0 0 4.27 63
05:00 14 J/kg 4.9 K 0 % 0 % 0 % 0 m²/s² 0 0 5.23 61
06:00 21 J/kg 5.7 K 0 % 0 % 0 % 0 m²/s² 0 0 6.39 61
07:00 12 J/kg 6.3 K 0 % 0 % 0 % 0 m²/s² 0 0 7.83 61
08:00 16 J/kg 6.3 K 0 % 0 % 0 % 0 m²/s² 0 0 8.16 61
09:00 17 J/kg 6.7 K 0 % 0 % 0 % 0 m²/s² 0 0 9.01 61
10:00 22 J/kg 7.2 K 0 % 0 % 0 % 0 m²/s² 0 0 9.45 61
11:00 20 J/kg 8.7 K 0 % 0 % 0 % 0 m²/s² 0 0 10.62 61
12:00 20 J/kg 10.3 K 0 % 0 % 0 % 0 m²/s² 0 0 12.82 61
13:00 19 J/kg 10.0 K 0 % 0 % 0 % 0 m²/s² 0 0 13.24 61
14:00 20 J/kg 9.9 K 0 % 0 % 0 % 0 m²/s² 0 0 13.47 61
15:00 19 J/kg 9.7 K 0 % 0 % 0 % 0 m²/s² 0 0 13 61
16:00 24 J/kg 8.8 K 0 % 0 % 0 % 0 m²/s² 0 0 11.77 3
17:00 25 J/kg 8.5 K 0 % 0 % 0 % 0 m²/s² 0 0 11.23 61
18:00 25 J/kg 8.6 K 0 % 0 % 0 % 0 m²/s² 0 0 11.39 61
19:00 19 J/kg 8.9 K 0 % 0 % 0 % 0 m²/s² 0 0 11.69 61
20:00 23 J/kg 9.1 K 0 % 0 % 0 % 0 m²/s² 0 0 12.07 61
21:00 14 J/kg 9.3 K 0 % 0 % 0 % 0 m²/s² 0 0 12.33 80
22:00 34 J/kg 9.7 K 0 % 0 % 0 % 0 m²/s² 0 0 13 80
23:00 19 J/kg 10.6 K 0 % 0 % 0 % 0 m²/s² 0 0 14.17 80
 04:04     23:04    Daglengte: 19:00 Zondag 29 Mei
00:00 16 J/kg 11.0 K 0 % 0 % 0 % 0 m²/s² 0 0 14.66 80
01:00 13 J/kg 11.0 K 0 % 0 % 0 % 0 m²/s² 0 0 14.57 61
02:00 24 J/kg 10.4 K 0 % 0 % 0 % 0 m²/s² 0 0 13.67 61
03:00 40 J/kg 9.4 K 0 % 0 % 0 % 0 m²/s² 0 0 11.98 61
04:00 37 J/kg 9.0 K 0 % 0 % 0 % 0 m²/s² 0 0 10.95 61
05:00 50 J/kg 7.7 K 0 % 0 % 0 % 0 m²/s² 0 0 8.33 61
06:00 59 J/kg 6.4 K 0 % 0 % 0 % 0 m²/s² 0 0 6.82 61
07:00 29 J/kg 6.2 K 0 % 0 % 0 % 0 m²/s² 0 0 6.62 61
Temp Baro Wind Neerslag
  EWN Forecast EWN WRFDA DWD ICON FMI HIRLAM MET Norway GFS
 04:11     22:57    Daglengte: 18:46 Vandaag
08:00 10.2° 997.5 hPa 2.0 m/s 0.0 mm 11.0° 994.0 hPa 2.1 m/s 0.1 mm 10.2° 998.4 hPa 2.0 m/s -1.9 mm 10.2° 996.9 hPa 2.7 m/s 0.0 mm 9.9° 996.7 hPa 2.6 m/s
11:00 10.2° 999.5 hPa 8.1 m/s 0.0 mm 10.7° 995.5 hPa 3.8 m/s 0.2 mm 10.2° 1000.9 hPa 7.4 m/s 1.3 mm 9.4° 999.1 hPa 8.3 m/s 0.0 mm 8.8° 999.5 hPa 5.4 m/s
14:00 10.2° 1002.0 hPa 8.2 m/s 1.5 mm 8.9° 998.8 hPa 9.4 m/s 6.2 mm 10.3° 1003.1 hPa 7.9 m/s 0.7 mm 10.6° 1001.8 hPa 7.6 m/s 0.0 mm 9.1° 1002.4 hPa 6.7 m/s
17:00 10.6° 1003.0 hPa 6.8 m/s 0.0 mm 9.8° 1000.5 hPa 8.0 m/s 12.5 mm 10.8° 1003.5 hPa 6.8 m/s 0.0 mm 10.7° 1002.5 hPa 6.4 m/s 0.0 mm 9.7° 1003.2 hPa 8.9 m/s
20:00 10.0° 1002.6 hPa 4.6 m/s 0.0 mm 9.4° 1000.8 hPa 6.8 m/s 12.6 mm 10.3° 1002.7 hPa 4.4 m/s 0.0 mm 9.8° 1002.7 hPa 4.1 m/s 0.0 mm 9.5° 1003.4 hPa 5.9 m/s
23:00 8.9° 1003.0 hPa 1.8 m/s 0.0 mm 7.6° 1000.8 hPa 3.9 m/s 12.6 mm 8.9° 1002.7 hPa 1.0 m/s 0.0 mm 8.3° 1003.4 hPa 2.0 m/s 0.0 mm 9.0° 1003.3 hPa 3.0 m/s
 04:08     22:59    Daglengte: 18:51 Morgen
02:00 8.3° 1002.7 hPa 0.8 m/s 0.0 mm 8.2° 1000.4 hPa 2.0 m/s 12.7 mm 8.3° 1002.6 hPa 1.2 m/s 0.0 mm 7.3° 1003.4 hPa 0.4 m/s 0.0 mm 8.6° 1003.1 hPa 0.3 m/s
05:00 8.0° 1002.8 hPa 1.7 m/s 0.0 mm 7.3° 1000.6 hPa 2.6 m/s 19.9 mm 8.0° 1003.0 hPa 1.4 m/s 0.1 mm 6.9° 1003.4 hPa 1.1 m/s 0.0 mm 8.4° 1003.3 hPa 1.3 m/s
08:00 8.5° 1003.6 hPa 2.3 m/s 2.0 mm 8.7° 1001.3 hPa 2.7 m/s 28.1 mm 8.4° 1003.8 hPa 2.3 m/s 0.6 mm 8.3° 1003.8 hPa 1.0 m/s 0.0 mm 8.7° 1004.0 hPa 1.1 m/s
11:00 8.8° 1005.1 hPa 3.3 m/s 0.0 mm 9.2° 1003.0 hPa 5.6 m/s 28.2 mm 8.8° 1005.7 hPa 2.6 m/s 1.9 mm 9.3° 1004.6 hPa 3.1 m/s 0.0 mm 8.8° 1005.5 hPa 2.7 m/s
14:00 8.8° 1006.8 hPa 4.2 m/s 0.0 mm 8.3° 1004.5 hPa 7.2 m/s 29.0 mm 9.0° 1007.3 hPa 3.9 m/s 2.0 mm 9.7° 1006.0 hPa 4.6 m/s 0.0 mm 8.9° 1007.2 hPa 3.7 m/s
17:00 9.1° 1008.3 hPa 4.8 m/s 0.0 mm 8.7° 1006.1 hPa 6.0 m/s 31.9 mm 9.4° 1008.9 hPa 4.9 m/s 0.3 mm 9.4° 1006.8 hPa 5.2 m/s 0.0 mm 7.8° 1008.5 hPa 2.0 m/s
20:00 8.3° 1009.2 hPa 5.3 m/s 5.4 mm 7.6° 1007.5 hPa 6.5 m/s 32.7 mm 8.5° 1009.7 hPa 4.5 m/s 0.8 mm 8.7° 1007.2 hPa 5.5 m/s 0.0 mm 8.9° 1009.9 hPa 4.6 m/s
23:00 8.3° 1010.0 hPa 6.3 m/s 6.6 mm 8.2° 1008.0 hPa 8.8 m/s 41.2 mm 8.2° 1010.5 hPa 4.9 m/s 1.3 mm 8.6° 1007.9 hPa 6.2 m/s 0.0 mm 8.5° 1011.1 hPa 7.2 m/s
 04:06     23:02    Daglengte: 18:56 Zaterdag 28 Mei
02:00 8.4° 1010.5 hPa 6.3 m/s 15.6 mm 8.2° 1009.2 hPa 8.9 m/s 51.1 mm 8.3° 1010.7 hPa 5.1 m/s 10.6 mm 8.6° 1008.3 hPa 5.9 m/s 0.0 mm 8.4° 1012.0 hPa 7.7 m/s
05:00 8.1° 1012.2 hPa 7.5 m/s 16.1 mm 7.3° 1010.8 hPa 9.0 m/s 57.5 mm 8.3° 1011.9 hPa 5.2 m/s 8.4 mm 8.4° 1013.3 hPa 8.3 m/s
08:00 8.0° 1013.7 hPa 6.2 m/s 14.2 mm 6.8° 1012.2 hPa 8.3 m/s 60.8 mm 8.1° 1013.4 hPa 6.1 m/s 4.1 mm 8.6° 1014.6 hPa 6.0 m/s
11:00 7.8° 1015.4 hPa 7.7 m/s 19.6 mm 6.7° 1013.1 hPa 8.0 m/s 63.5 mm 8.0° 1015.3 hPa 6.5 m/s 7.4 mm 8.5° 1015.5 hPa 6.7 m/s
14:00 7.7° 1016.1 hPa 6.4 m/s 15.6 mm 6.9° 1013.6 hPa 7.7 m/s 65.0 mm 8.0° 1016.0 hPa 6.0 m/s 6.0 mm 8.0° 1016.1 hPa 6.4 m/s
17:00 7.8° 1016.3 hPa 6.4 m/s 12.4 mm 6.9° 1013.8 hPa 6.5 m/s 66.9 mm 8.3° 1016.2 hPa 6.6 m/s 1.1 mm 7.6° 1016.6 hPa 5.9 m/s
20:00 7.8° 1016.0 hPa 6.2 m/s 17.8 mm 6.7° 1013.2 hPa 6.8 m/s 68.5 mm 8.2° 1015.8 hPa 6.1 m/s 1.4 mm 7.3° 1016.6 hPa 5.1 m/s
23:00 7.6° 1015.7 hPa 6.5 m/s 14.9 mm 6.5° 1012.3 hPa 6.9 m/s 69.5 mm 7.7° 1015.5 hPa 5.0 m/s 1.7 mm 7.5° 1015.9 hPa 4.6 m/s
 04:04     23:04    Daglengte: 19:00 Zondag 29 Mei
02:00 7.4° 1013.8 hPa 6.3 m/s 25.0 mm 6.4° 1010.9 hPa 7.0 m/s 70.5 mm 7.6° 1014.5 hPa 6.1 m/s 2.3 mm 7.4° 1014.5 hPa 4.9 m/s
05:00 7.4° 1013.0 hPa 5.4 m/s 27.4 mm 6.8° 1009.3 hPa 7.1 m/s 73.6 mm 7.5° 1013.9 hPa 4.9 m/s 4.4 mm 7.5° 1013.1 hPa 3.9 m/s
08:00 7.4° 1012.1 hPa 5.1 m/s 29.5 mm 7.0° 1008.5 hPa 5.5 m/s 79.8 mm 7.5° 1013.1 hPa 5.0 m/s 4.4 mm 7.4° 1012.1 hPa 2.1 m/s
11:00 7.0° 1011.9 hPa 1.9 m/s 46.3 mm 7.0° 1011.9 hPa 1.9 m/s 46.3 mm
14:00 7.7° 1011.6 hPa 4.5 m/s 46.4 mm 7.7° 1011.6 hPa 4.5 m/s 46.4 mm
17:00 9.0° 1011.4 hPa 7.8 m/s 46.4 mm 9.0° 1011.4 hPa 7.8 m/s 46.4 mm
20:00 9.6° 1010.9 hPa 8.9 m/s 46.4 mm 9.6° 1010.9 hPa 8.9 m/s 46.4 mm
23:00 9.3° 1011.5 hPa 7.7 m/s 46.4 mm 9.3° 1011.5 hPa 7.7 m/s 46.4 mm
 04:02     23:07    Daglengte: 19:05 Maandag 30 Mei
02:00 9.1° 1011.6 hPa 3.8 m/s 46.4 mm 9.1° 1011.6 hPa 3.8 m/s 46.4 mm
05:00 8.9° 1011.7 hPa 3.7 m/s 46.4 mm 8.9° 1011.7 hPa 3.7 m/s 46.4 mm
08:00 9.6° 1011.9 hPa 1.6 m/s 46.4 mm 9.6° 1011.9 hPa 1.6 m/s 46.4 mm
11:00 9.8° 1011.6 hPa 3.6 m/s 46.4 mm 9.8° 1011.6 hPa 3.6 m/s 46.4 mm
14:00 9.7° 1011.4 hPa 3.7 m/s 46.4 mm 9.7° 1011.4 hPa 3.7 m/s 46.4 mm
17:00 9.9° 1010.9 hPa 3.8 m/s 46.4 mm 9.9° 1010.9 hPa 3.8 m/s 46.4 mm
20:00 9.5° 1010.1 hPa 2.5 m/s 46.4 mm 9.5° 1010.1 hPa 2.5 m/s 46.4 mm
23:00 9.3° 1009.5 hPa 1.5 m/s 46.4 mm 9.3° 1009.5 hPa 1.5 m/s 46.4 mm
 04:00     23:09    Daglengte: 19:09 Dinsdag 31 Mei
02:00 9.1° 1009.3 hPa 2.2 m/s 46.5 mm 9.1° 1009.3 hPa 2.2 m/s 46.5 mm
05:00 8.7° 1008.9 hPa 1.3 m/s 47.3 mm 8.7° 1008.9 hPa 1.3 m/s 47.3 mm
08:00 8.8° 1009.4 hPa 2.7 m/s 48.9 mm 8.8° 1009.4 hPa 2.7 m/s 48.9 mm
11:00 8.8° 1010.3 hPa 3.4 m/s 49.8 mm 8.8° 1010.3 hPa 3.4 m/s 49.8 mm
14:00 9.2° 1011.1 hPa 3.0 m/s 50.1 mm 9.2° 1011.1 hPa 3.0 m/s 50.1 mm
17:00 9.5° 1011.7 hPa 3.2 m/s 50.2 mm 9.5° 1011.7 hPa 3.2 m/s 50.2 mm
20:00 9.5° 1012.3 hPa 0.3 m/s 50.2 mm 9.5° 1012.3 hPa 0.3 m/s 50.2 mm
23:00 9.6° 1012.8 hPa 2.2 m/s 50.2 mm 9.6° 1012.8 hPa 2.2 m/s 50.2 mm
 03:58     23:11    Daglengte: 19:13 Woensdag 01 Jun
02:00 9.7° 1012.6 hPa 0.6 m/s 50.2 mm 9.7° 1012.6 hPa 0.6 m/s 50.2 mm
05:00 9.5° 1013.1 hPa 1.6 m/s 50.2 mm 9.5° 1013.1 hPa 1.6 m/s 50.2 mm
08:00 9.8° 1014.1 hPa 2.0 m/s 50.2 mm 9.8° 1014.1 hPa 2.0 m/s 50.2 mm
11:00 10.0° 1015.0 hPa 1.6 m/s 50.2 mm 10.0° 1015.0 hPa 1.6 m/s 50.2 mm
14:00 10.1° 1016.5 hPa 1.0 m/s 50.2 mm 10.1° 1016.5 hPa 1.0 m/s 50.2 mm
17:00 10.6° 1017.6 hPa 0.7 m/s 50.3 mm 10.6° 1017.6 hPa 0.7 m/s 50.3 mm
20:00 10.8° 1018.1 hPa 1.9 m/s 50.3 mm 10.8° 1018.1 hPa 1.9 m/s 50.3 mm
23:00 10.9° 1018.6 hPa 2.5 m/s 50.3 mm 10.9° 1018.6 hPa 2.5 m/s 50.3 mm
 03:56     23:13    Daglengte: 19:17 Donderdag 02 Jun
02:00 10.3° 1018.8 hPa 2.4 m/s 50.3 mm 10.3° 1018.8 hPa 2.4 m/s 50.3 mm
05:00 10.2° 1019.1 hPa 2.8 m/s 50.3 mm 10.2° 1019.1 hPa 2.8 m/s 50.3 mm
08:00 10.7° 1019.6 hPa 3.7 m/s 50.3 mm 10.7° 1019.6 hPa 3.7 m/s 50.3 mm
14:00 10.9° 1020.4 hPa 6.9 m/s 50.3 mm 10.9° 1020.4 hPa 6.9 m/s 50.3 mm
20:00 10.7° 1020.5 hPa 6.3 m/s 50.3 mm 10.7° 1020.5 hPa 6.3 m/s 50.3 mm
 03:55     23:15    Daglengte: 19:20 Vrijdag 03 Jun
02:00 10.3° 1020.4 hPa 5.5 m/s 50.3 mm 10.3° 1020.4 hPa 5.5 m/s 50.3 mm
08:00 10.8° 1020.4 hPa 7.5 m/s 50.3 mm 10.8° 1020.4 hPa 7.5 m/s 50.3 mm
14:00 10.2° 1020.8 hPa 8.6 m/s 50.3 mm 10.2° 1020.8 hPa 8.6 m/s 50.3 mm
20:00 10.2° 1020.8 hPa 6.0 m/s 50.3 mm 10.2° 1020.8 hPa 6.0 m/s 50.3 mm
 03:53     23:17    Daglengte: 19:24 Zaterdag 04 Jun
02:00 10.9° 1021.4 hPa 3.3 m/s 50.3 mm 10.9° 1021.4 hPa 3.3 m/s 50.3 mm
08:00 11.5° 1022.7 hPa 3.3 m/s 50.3 mm 11.5° 1022.7 hPa 3.3 m/s 50.3 mm
14:00 10.8° 1023.4 hPa 4.5 m/s 50.3 mm 10.8° 1023.4 hPa 4.5 m/s 50.3 mm
20:00 10.7° 1022.9 hPa 4.0 m/s 50.4 mm 10.7° 1022.9 hPa 4.0 m/s 50.4 mm
 03:52     23:19    Daglengte: 19:27 Zondag 05 Jun
02:00 9.6° 1018.0 hPa 1.6 m/s 0.3 mm
08:00 10.3° 1017.0 hPa 1.5 m/s 0.4 mm
14:00 11.3° 1016.8 hPa 2.3 m/s 0.2 mm
20:00 10.8° 1016.8 hPa 2.4 m/s 0.3 mm
 03:50     23:21    Daglengte: 19:31 Maandag 06 Jun
02:00 9.6° 1017.0 hPa 1.7 m/s 0.3 mm
08:00 10.5° 1016.1 hPa 1.9 m/s 0.4 mm
14:00 11.2° 1015.8 hPa 2.7 m/s 0.6 mm
20:00 10.7° 1015.5 hPa 2.5 m/s 0.5 mm
 03:49     23:23    Daglengte: 19:34 Dinsdag 07 Jun
02:00 9.8° 1015.3 hPa 2.2 m/s 0.5 mm
08:00 10.4° 1014.0 hPa 3.0 m/s 0.2 mm
14:00 11.4° 1012.9 hPa 4.0 m/s 0.3 mm